OPS 4682 DEB, 38453

Orbit data source: Space-Track

OPS 4682 DEB, 38453 is space debris in LEO originally from a launch on Sat, 03 Apr 1965 UTC launched from the Air Force Western Test Range (AFWTR). Debris objects in space refer to the collection of defunct objects orbiting the Earth. Examples of debris include non-operational satellites, rocket bodies, and fragments generated from explosions, collisions, or faulty payload assembly.

Loading next visibility...
Identifier
38453, 1965-027FJ
Orbit
LEO
Country
Flag of USUS
Related business
Manufacturer
Unknown
Mission
Spacecraft
Bus & Motor
Unknown
Mass
Unknown
Launch date (UTC)
1965-04-03 (61 years ago)
Launch vehicle
Unknown
Launch site
Air Force Western Test Range (AFWTR)
Object type
Payload
Rocket body
Debris
Shape & HBR
Unknown shape, 0.1 m
Radar Cross Section
Small (<0.1 m²)

Expand to show TLE details & history
Last TLE update: 3 days ago

TLE from 3 days ago
0 OPS 4682 DEB
1 38453U 65027FJ  25290.94637346  .00000410  00000-0  14388-2 0  9994
2 38453  90.2433   1.2555 0028956 138.6414 221.6905 12.94785950543648
Epoch: 2025-10-17T22:42Z
TLE epoch observation values (Epoch: 2025-10-17T22:42:46.666Z)
Latitude
-0.00003°
Longitude
-6.12339°
Altitude
1,302.056 km
Speed
7.198 km/s
True Right ascension
00h 05m 01s
True Declination
0° 00' 00"
Sunlit
Object was in full shadow at epoch
Visualization orbit readout
Latitude
Unknown
Longitude
Unknown
Altitude
Unknown
Speed
Unknown
Apparent Right ascension
Unknown
Apparent Declination
Unknown
Sunlit
N/A
Visualization observer readout
Local Sidereal Time
18:01:34
Azimuth
Unknown
Elevation
Unknown
Doppler factor
Unknown
Orbital elements
Apogee altitude
1,301.893 km
Perigee altitude
1,257.545 km
Semi-major axis
7,657.856 km
Eccentricity
0.0029
Inclination
90.2433°
RAAN
1.2555°
Arg. of periapsis
138.6414°
True anomaly
221.47041°
Mean anomaly
221.6905°
Eccentric anomaly
221.58039°
Mean motion
3.23879 °/min
Orbital period
111.15 mins
BSTAR
0.0014388
Loading maneuver chart data...
Computing Atmospheric mass density...
Loading historical data...
Loading historical data...
Loading historical data...
Loading historical data...
Loading historical data...
Loading historical data...
Loading historical data...

Documentation

Showing up to 5 results
|